Location: Bondula
(6.3703°N, 10.6756°W)
Time: 04:01:30
(UTC+00:00)

SJ-12 - Pass Details

Date: 22 October 2019
Orbit: 569 x 585 km, 97.6° (Epoch: 12 November)

Event Time Altitude Azimuth Distance (km) Brightness Sun altitude
Rises 05:56:31 0° 1° (N) 2,781 7.3 -8.7°
Reaches altitude 10° 05:58:43 10° 354° (N) 1,886 6.4 -8.2°
Maximum altitude 06:02:37 44° 282° (WNW) 808 4.2 -7.2°
Drops below altitude 10° 06:06:32 10° 210° (SSW) 1,898 6.4 -6.3°
Sets 06:08:46 0° 203° (SSW) 2,800 7.3 -5.7°
